Torna al catalogo

SL-12 R/B(2)

AttivoGEO
NORAD 22910·ROCKET BODY·🇷🇺 Russia

Lanciato Nov 18, 1993 da Baikonur Cosmodrome

Loading…

TLE

AggiornatoSource: Space-Track

Epoca: Sep 12, 2026, 22:30 UTC

1 22910U 93072D   26255.93763273 -.00000066  00000-0  00000-0 0  9998
2 22910  12.6892 342.3560 0018035 180.3324 176.1980  1.03162140123652

Traccia SL-12 R/B(2) in tempo reale con AllMySat

Download on the App Store